Change the Weather History Date:

Thursday, February 21, 2013

  Actual Average Record
Temperature  
Mean Temperature 70 °F -  
Max Temperature 75 °F 68 °F 82 °F (1980)
Min Temperature 61 °F 48 °F 31 °F (1964)
Cooling Degree Days 4    
Growing Degree Days 20 (Base 50)    
Moisture  
Dew Point 63 °F    
Average Humidity 78    
Maximum Humidity 90    
Minimum Humidity 43    
Precipitation  
Precipitation 0.01 in - - ()
Sea Level Pressure  
Sea Level Pressure 29.72 in    
Wind  
Wind Speed 16 mph (SE)    
Max Wind Speed 23 mph    
Max Gust Speed 28 mph    
Visibility 7 miles    
Events Rain    
Averages and records for this station are not official NWS values.
T = Trace of Precipitation, MM = Missing Value Source: NWS Daily Summary

Daily Weather History Graph

Daily Weather History Graph

Search for Another Location

Airport or City:

Trip Planner

Search our weather history database for the weather conditions in past years. The results will help you decide how hot, cold, wet, or windy it might be!

Date:

Astronomy

Feb. 21, 2013 Rise Set
Actual Time 6:57 AM CST 6:19 PM CST
Civil Twilight 6:33 AM CST 6:43 PM CST
Nautical Twilight 6:06 AM CST 7:11 PM CST
Astronomical Twilight 5:38 AM CST 7:38 PM CST
Moon 2:47 PM CST (2/21) 3:50 AM CST (2/21)
Length of Visible Light 12h 09m
Length of Day
11h 22m
Waxing Gibbous, 84% of the Moon is Illuminated
Feb 21
Waxing Gibbous
Feb 25
Full
Mar 4
Last Quarter
Mar 11
New
Mar 19
First Quarter

Hourly Weather History & Observations

Time (CST) Temp. Dew Point Humidity Pressure Visibility Wind Dir Wind Speed Gust Speed Precip Events Conditions
12:53 AM 70.0 °F 66.0 °F 87% 29.73 in 9.0 mi SE 18.4 mph 26.5 mph N/A   Overcast
1:53 AM 70.0 °F 66.0 °F 87% 29.71 in 7.0 mi SE 19.6 mph - N/A   Overcast
2:12 AM 69.8 °F 66.2 °F 88% 29.71 in 7.0 mi SE 19.6 mph 26.5 mph N/A   Overcast
2:40 AM 69.8 °F 66.2 °F 88% 29.70 in 7.0 mi SE 20.7 mph - 0.00 in   Overcast
2:53 AM 70.0 °F 66.9 °F 90% 29.69 in 7.0 mi SE 19.6 mph - 0.00 in   Overcast
3:53 AM 70.0 °F 66.9 °F 90% 29.66 in 6.0 mi SE 18.4 mph - 0.00 in Rain Light Rain
4:53 AM 70.0 °F 66.9 °F 90% 29.66 in 6.0 mi SE 17.3 mph - 0.01 in   Overcast
5:53 AM 71.1 °F 66.9 °F 87% 29.66 in 7.0 mi SE 23.0 mph 27.6 mph N/A   Overcast
6:16 AM 71.6 °F 66.2 °F 83% 29.65 in 7.0 mi SE 20.7 mph - N/A   Overcast
6:53 AM 71.1 °F 66.9 °F 87% 29.68 in 7.0 mi SE 17.3 mph - N/A   Overcast
7:18 AM 71.6 °F 66.2 °F 83% 29.68 in 6.0 mi SSE 18.4 mph 26.5 mph N/A   Overcast
7:25 AM 71.6 °F 66.2 °F 83% 29.68 in 5.0 mi SSE 16.1 mph 25.3 mph N/A   Overcast
7:32 AM 71.6 °F 66.2 °F 83% 29.68 in 5.0 mi SSE 17.3 mph - N/A   Overcast
7:53 AM 71.1 °F 66.9 °F 87% 29.68 in 5.0 mi SSE 17.3 mph - N/A   Overcast
8:07 AM 71.6 °F 66.2 °F 83% 29.68 in 6.0 mi SSE 19.6 mph 27.6 mph N/A   Mist
8:32 AM 71.6 °F 68.0 °F 88% 29.69 in 6.0 mi SSE 16.1 mph 25.3 mph N/A   Overcast
8:44 AM 71.6 °F 68.0 °F 88% 29.70 in 5.0 mi SSE 16.1 mph 23.0 mph N/A   Overcast
8:53 AM 71.1 °F 68.0 °F 90% 29.70 in 5.0 mi SSE 12.7 mph - N/A   Overcast
9:49 AM 71.6 °F 68.0 °F 88% 29.72 in 5.0 mi South 6.9 mph - N/A   Overcast
9:53 AM 72.0 °F 68.0 °F 87% 29.72 in 5.0 mi South 8.1 mph - N/A   Overcast
10:53 AM 72.0 °F 66.9 °F 84% 29.74 in 4.0 mi SW 8.1 mph - N/A   Haze
11:33 AM 73.4 °F 68.0 °F 83% 29.76 in 5.0 mi WSW 6.9 mph 18.4 mph 0.00 in Rain Light Rain
11:53 AM 73.0 °F 69.1 °F 87% 29.74 in 4.0 mi SSW 10.4 mph 18.4 mph 0.00 in Rain Light Rain
12:15 PM 73.4 °F 69.8 °F 88% 29.73 in 4.0 mi SSW 9.2 mph - 0.00 in   Overcast
12:34 PM 71.6 °F 68.0 °F 88% 29.72 in 4.0 mi SSW 10.4 mph - 0.00 in   Overcast
12:53 PM 73.0 °F 68.0 °F 84% 29.71 in 4.0 mi SSW 13.8 mph - 0.00 in   Haze
1:53 PM 72.0 °F 66.9 °F 84% 29.69 in 4.0 mi SSW 10.4 mph - N/A   Haze
2:53 PM 73.9 °F 66.9 °F 79% 29.68 in 6.0 mi South 10.4 mph - N/A   Haze
3:53 PM 73.9 °F 59.0 °F 59% 29.71 in 7.0 mi NNW 11.5 mph 23.0 mph N/A   Mostly Cloudy
4:22 PM 75.2 °F 55.4 °F 50% 29.71 in 10.0 mi North 15.0 mph - N/A   Overcast
4:53 PM 75.0 °F 51.1 °F 43% 29.73 in 10.0 mi North 13.8 mph - N/A   Mostly Cloudy
5:53 PM 72.0 °F 48.9 °F 44% 29.75 in 10.0 mi North 9.2 mph - N/A   Scattered Clouds
7:53 PM 66.0 °F 48.0 °F 52% 29.80 in 10.0 mi ENE 6.9 mph - N/A   Partly Cloudy
8:53 PM 66.0 °F 51.1 °F 59% 29.81 in 10.0 mi ENE 6.9 mph - N/A   Mostly Cloudy
9:53 PM 64.9 °F 48.9 °F 56% 29.82 in 10.0 mi East 8.1 mph - N/A   Clear
10:53 PM 64.0 °F 48.9 °F 58% 29.83 in 10.0 mi ENE 6.9 mph - N/A   Clear
11:53 PM 61.0 °F 48.9 °F 64% 29.83 in 10.0 mi ENE 6.9 mph - N/A   Clear